{"data":{"norad_id":63949,"intl_designator":"2025-098Z","name":"STARLINK-33993","alt_names":[],"object_type":"PAYLOAD","status":"ACTIVE","operator":null,"country":"US","launch_date":"2025-05-13","launch_site_code":"AFWTR","launch_vehicle":null,"mission":null,"orbit_class":"UNKNOWN","rcs_meters":null,"size_class":null,"mass_kg":null,"dimensions":null,"purposes":["comms"],"wikipedia_slug":null,"has_3d_model":false,"image_url":null,"decayed_at":null,"tle_current":{"epoch":"2026-05-24T21:53:20.558400Z","epoch_age_seconds":72871,"freshness":"FRESH","line1":"1 63949U 25098Z   26144.91204350  .00005969  00000+0  50754-3 0  9998","line2":"2 63949  70.0009  82.1071 0002960 264.8794  95.2028 14.98336255 57964","mean_motion":14.98336255,"eccentricity":0.000296,"inclination_deg":70.0009,"raan_deg":82.1071,"arg_perigee_deg":264.8794,"mean_anomaly_deg":95.2028,"bstar":0.00050754,"rev_number":5796,"period_min":96.106597914498,"perigee_km":569.97929656999,"apogee_km":574.09379931038,"semimajor_km":6950.1735479402,"source":"CELESTRAK","updated_at":"2026-05-25T13:38:20.208790Z"}}}